Regional Weather Roundup
Issued by NWS

Home | Current Version | Previous Version | Graphics & Text | Print | Product List | Glossary On
Versions: 1 2 3 4 5 6 7 8 9 10 11 12 13 14 15 16 17 18 19 20 21 22 23 24 25 26 27 28 29 30 31 32 33 34 35 36 37 38 39 40 41 42 43 44 45 46 47 48 49 50
000
ASUS43 KOAX 290210
RWRNE

WEATHER ROUNDUP FOR NEBRASKA
NATIONAL WEATHER SERVICE OMAHA NE
900 PM CDT FRI AUG 28 2015

NOTES: SATELLITE DATA IS BEING USED TO AUGMENT CLOUD COVER ABOVE
       12000 FEET.
       "FAIR" INDICATES FEW OR NO CLOUDS BELOW 12,000 FEET WITH NO
       SIGNIFICANT WEATHER AND/OR OBSTRUCTIONS TO VISIBILITY.

  * THESE STATIONS DO NOT REPORT WEATHER SUCH AS RAIN...SNOW OR FOG.

NEZ001>004-019>022-054>056-290300-
NEBRASKA PANHANDLE

CITY           SKY/WX    TMP DP  RH WIND       PRES   REMARKS
SCOTTSBLUFF    CLEAR     71  57  61 SE5       30.12R
ALLIANCE       CLEAR     69  51  52 SE6       30.11R
CHADRON        CLEAR     72  55  55 SE5       30.05R
KIMBALL        CLEAR     68  46  45 E5        30.19R
SIDNEY         CLEAR     71  43  36 NE7       30.16R
$$

NEZ057>060-069>072-079>082-290300-
SOUTHWEST NEBRASKA

CITY           SKY/WX    TMP DP  RH WIND       PRES   REMARKS
NORTH PLATTE   CLEAR     66  60  81 NE6       30.05R
IMPERIAL       CLEAR     73  59  61 NE3       30.08R
LEXINGTON      CLEAR     68  63  83 NE6       30.03R
MCCOOK         CLEAR     72  62  71 MISG      30.03R
OGALLALA       CLEAR     73  55  51 CALM      30.08R
$$

NEZ005>010-023>029-035>040-094-290300-
NORTH CENTRAL NEBRASKA

CITY           SKY/WX    TMP DP  RH WIND       PRES   REMARKS
VALENTINE      CLEAR     70  61  73 SE6       30.04R
AINSWORTH      CLEAR     67  64  91 CALM      30.04S
BROKEN BOW     CLEAR     66  62  87 N5        30.03R
O`NEILL        CLEAR     68  65  91 E5        30.02R
ORD            CLEAR     65  62  90 CALM      30.00R
THEDFORD       CLEAR     68  62  79 CALM      30.07R
$$

NEZ041-046>049-061>064-073>077-083>087-290300-
SOUTH CENTRAL NEBRASKA

CITY           SKY/WX    TMP DP  RH WIND       PRES   REMARKS
GRAND ISLAND   CLEAR     67  61  81 N5        30.00R
AURORA         PTCLDY    67  65  93 N6        29.99R
HASTINGS       CLEAR     67  62  84 N3        30.00R
HEBRON         CLOUDY    71  62  74 CALM      29.97R
HOLDREGE       CLEAR     64  60  86 NE5       30.02R
KEARNEY *      CLEAR     66  57  72 N6        30.02R
YORK           MOCLDY    68  64  88 N3        29.97R
$$

NEZ011>018-030>034-042>045-290300-
NORTHEAST NEBRASKA

CITY           SKY/WX    TMP DP  RH WIND       PRES   REMARKS
NORFOLK        CLEAR     66  62  87 N10       29.98R
ALBION         CLEAR     67  62  83 N5        29.99R
BLAIR          DRIZZLE   64  61  91 N14       29.93R
COLUMBUS *     PTCLDY   N/A N/A N/A N3        29.97R
FREMONT        CLOUDY    66  60  80 N9        29.96R
TEKAMAH        CLOUDY    64  62  93 N13       29.94R
WAYNE          CLEAR     63  59  88 N12       29.99R
$$

NEZ050>053-065>068-078-088>093-290300-
SOUTHEAST NEBRASKA

CITY           SKY/WX    TMP DP  RH WIND       PRES   REMARKS
LINCOLN        MOCLDY    68  61  78 N14       29.95R
OMAHA EPPLEY   CLOUDY    66  64  93 NW14      29.92R
BEATRICE       CLOUDY    69  65  87 NW3       29.94R
FALLS CITY     PTCLDY    71  69  93 N3        29.90R
NEBRASKA CITY  CLEAR     67  65  93 NW3       29.92R
PLATTSMOUTH    CLOUDY    67  63  86 NW9       29.92R
$$

NEZ044-045-051>053-067-290300-
OMAHA AREA

CITY           SKY/WX    TMP DP  RH WIND       PRES   REMARKS
OMAHA EPPLEY   CLOUDY    66  64  93 NW14      29.92R
BLAIR          DRIZZLE   64  61  91 N14       29.93R
FREMONT        CLOUDY    66  60  80 N9        29.96R
MILLARD        CLOUDY    67  64  92 NW6       29.92R FOG
OFFUTT AFB     MOCLDY    68  64  87 NW9       29.91R
PLATTSMOUTH    CLOUDY    67  63  86 NW9       29.92R
WAHOO          CLOUDY    66  61  84 N9        29.95R
$$




USA.gov is the U.S. government's official web portal to all federal, state and local government web resources and services.